TIME,DELAY(SENSOR),PRES,OXYGEN,RAWTEMP,T(OPTODE),TCPHASE,FLUOR,BETA(BETA700),BETA(BETA412),BETA(BETA440),CDOM,C(CSC),ED(ED412.40),ED(ED444.00),ED(ED489.70),ED(ED554.30),LU(LU411.80),LU(LU443.40),LU(LU489.60),LU(LU554.10),COMP,TILTX,TILTY,CHECK
1364874511,5809,847.5300292968750000,45.2089309692382800,658.3931274414062000,4.6808609962463380,54.2102584838867200,51,98,86,78,79,14985,2147753846,2147421193,2148012260,2147876251,2147638902,2147054034,2148264548,2147198034,2462,4,13,36947
1364878107,5809,898.3099975585938000,47.6186790466308600,665.3469238281250000,4.4517841339111330,53.9441108703613300,52,100,87,80,80,14986,2147752429,2147424274,2148008621,2147875044,2147640338,2147058212,2148261421,2147199414,23,4,13,25963
1364881707,5812,910.1599731445312000,48.5753593444824200,667.5413208007812000,4.3793830871582030,53.8371009826660160,53,100,89,78,79,14986,2147756461,2147421056,2148011355,2147875108,2147635858,2147057737,2148258870,2147201874,153,4,13,56571
1364885307,5804,935.7100219726562000,49.9022102355957000,670.9110107421875000,4.2680988311767580,53.6986198425293000,52,98,85,80,80,14987,2147753938,2147424128,2148012672,2147872859,2147640649,2147054838,2148264045,2147197449,3595,4,14,38047
1364888907,5809,947.5399780273438000,49.9197692871093750,670.9965820312500000,4.2652702331542970,53.6955299377441400,53,99,92,77,79,14986,2147758180,2147423753,2148010148,2147873929,2147643309,2147058788,2148260571,2147195739,3391,4,13,58897
1364892507,5809,958.9099731445312000,49.4242286682128900,669.8366699218750000,4.3035931587219240,53.7498092651367200,53,101,87,78,81,14986,2147758025,2147425152,2148011620,2147873526,2147640612,2147053778,2148265252,2147196123,3360,4,13,3879
1364896107,5809,989.4099731445312000,49.7504615783691400,671.0181274414062000,4.2645587921142580,53.7203788757324200,52,98,90,81,80,14985,2147756269,2147423506,2148008192,2147873408,2147638656,2147053869,2148256146,2147198637,193,4,13,21250
1364899707,5808,991.4099731445312000,49.4747009277343750,670.6383056640625000,4.2771091461181640,53.7489204406738300,53,98,86,79,80,14984,2147758116,2147424301,2148012598,2147875968,2147643163,2147056137,2148263323,2147199561,3489,4,13,63399
1364903307,5810,984.4299926757812000,49.0559997558593750,670.9013061523438000,4.2684187889099120,53.8141098022460940,52,100,85,78,80,14983,2147756352,2147425682,2148010240,2147878208,2147639643,2147051520,2148265993,2147197668,3580,4,13,45234
1364906907,5809,989.9299926757812000,49.3398818969726560,670.6541137695312000,4.2765879631042480,53.7682418823242200,53,97,88,78,80,14985,2147755620,2147424320,2148007460,2147875849,2147639268,2147055296,2148262070,2147201124,563,4,14,43655
1364910507,5811,990.6400146484375000,48.9698905944824200,670.2836303710938000,4.2888298034667970,53.8201713562011700,53,100,88,79,79,14978,2147755017,2147427931,2148011684,2147872429,2147639771,2147056539,2148269056,2147200018,26,4,13,24671
1364914107,5809,982.6500244140625000,49.1617202758789060,671.0375976562500000,4.2639160156250000,53.7996101379394500,53,99,89,79,81,14979,2147755236,2147426276,2148009389,2147876699,2147636955,2147056676,2148261147,2147200594,3043,4,13,28155
1364917707,5810,989.5200195312500000,50.5744514465332000,672.7879028320312000,4.2060589790344240,53.6286811828613300,52,99,87,79,79,14979,2147756525,2147422125,2148009298,2147876333,2147639908,2147056822,2148263177,2147201472,3413,4,13,50158
1364921307,5810,982.8599853515625000,49.6444206237793000,672.2136230468750000,4.2250437736511230,53.7456703186035160,52,99,86,79,81,14981,2147757357,2147424173,2148012178,2147872886,2147643574,2147054464,2148266313,2147198436,591,4,13,53619
1364924907,5808,990.7000122070312000,50.0267601013183600,672.2536010742188000,4.2237238883972170,53.6960411071777340,53,98,86,79,80,14975,2147752704,2147426066,2148011465,2147873536,2147640091,2147059401,2148266304,2147197979,3186,4,13,19127
1364928507,5811,987.1500244140625000,50.0842514038085940,673.1146240234375000,4.1952548027038570,53.6972808837890600,52,99,86,79,79,14979,2147756964,2147428617,2148010048,2147876434,2147638912,2147054592,2148259428,2147196653,3577,4,13,747
1364932107,5810,991.4299926757812000,50.0632896423339840,672.8240966796875000,4.2048630714416500,53.6999015808105500,53,98,86,79,79,14977,2147755419,2147427885,2148013650,2147870793,2147640539,2147058678,2148260443,2147198857,58,4,13,37783
1364935707,5810,987.5999755859375000,49.9428596496582000,672.9479980468750000,4.2007641792297360,53.7137489318847660,52,100,85,79,80,14976,2147752585,2147426505,2148010413,2147875172,2147640731,2147055552,2148258496,2147200219,3280,4,13,21846
1364939307,5808,989.1699829101562000,50.4750404357910160,673.6807250976562000,4.1765332221984860,53.6504707336425800,52,102,85,78,80,14968,2147751734,2147426176,2148007789,2147871826,2147641993,2147060086,2148263250,2147197604,53,4,13,59097
1364942907,5812,992.7399902343750000,50.0229606628418000,673.1234741210938000,4.1949629783630370,53.7084388732910160,52,96,88,78,80,14975,2147751652,2147422208,2148011373,2147877092,2147642587,2147058459,2148258870,2147195346,294,4,13,56156
1364946507,5811,985.8699951171875000,50.4364700317382800,673.7672119140625000,4.1736721992492680,53.6551017761230500,52,101,86,80,80,14976,2147757604,2147423670,2148011136,2147872246,2147641051,2147059757,2148264731,2147196306,3519,4,13,2546
1364950107,5810,990.5100097656250000,49.8954505920410160,673.3242797851562000,4.1883201599121090,53.7297210693359400,53,99,86,77,80,14973,2147755675,2147423405,2148011373,2147872768,2147641371,2147056064,2148263104,2147199268,451,4,13,33302
1364953707,5808,997.9099731445312000,49.5175209045410160,671.5366821289062000,4.2474188804626465,53.7555809020996100,53,97,87,78,79,14974,2147759634,2147420123,2148010377,2147876800,2147639597,2147056740,2148263204,2147196845,3483,4,13,52318
1364957307,5810,993.6799926757812000,49.2757606506347660,671.9722290039062000,4.2330269813537600,53.7945518493652340,52,97,87,78,80,14973,2147758445,2147424164,2148009929,2147872649,2147641197,2147051593,2148258752,2147198665,78,4,13,60506
1364960907,5810,992.5000000000000000,49.4027595520019500,673.0338745117188000,4.1979260444641110,53.7882499694824200,52,98,88,78,79,14973,2147754733,2147424914,2148011181,2147877842,2147643584,2147060461,2148260809,2147196022,788,4,13,29394
1364964507,5810,994.7899780273438000,50.1558799743652340,672.4340209960938000,4.2177600860595700,53.6833915710449200,51,98,84,77,81,14970,2147758683,2147424667,2148009389,2147875958,2147640036,2147053568,2148265654,2147198765,272,4,13,20595
1364968107,5810,993.1900024414062000,50.3489189147949200,672.5524291992188000,4.2138438224792480,53.6553916931152340,52,98,87,80,79,14972,2147756662,2147424310,2148011008,2147875154,2147636580,2147055332,2148267136,2147198390,113,4,13,24669
1364971707,5805,985.2199707031250000,50.0880393981933600,672.6586303710938000,4.2103347778320310,53.6889686584472660,52,98,89,79,81,14968,2147758628,2147424731,2148008813,2147874806,2147639707,2147064704,2148260909,2147198025,3595,4,13,15613
1364975307,5810,992.7999877929688000,49.9227790832519500,674.1201171875000000,4.1619992256164550,53.7309684753418000,52,97,86,79,80,14973,2147756132,2147424512,2148009874,2147874203,2147640064,2147057188,2148261988,2147199131,639,4,13,60923
1364978907,5805,992.1400146484375000,50.1445884704589840,672.4890747070312000,4.2159371376037600,53.6797294616699200,53,99,85,79,81,14972,2147753664,2147424429,2148005897,2147871058,2147638784,2147057664,2148266002,2147196964,3386,4,13,60561
1364982507,5809,991.9699707031250000,50.0427284240722660,672.5194702148438000,4.2149310111999510,53.6949501037597660,52,98,90,78,80,14972,2147757184,2147424950,2148009993,2147875419,2147638043,2147053065,2148264155,2147198244,3448,4,13,64143
1364986107,5808,987.1799926757812000,49.7797088623046900,672.8574829101562000,4.2037558555603030,53.7357482910156250,52,100,84,78,80,14959,2147755629,2147424210,2148012333,2147874660,2147641078,2147057371,2148264685,2147196333,3350,4,13,44434
1364989707,5809,1003.5100097656250000,49.8836898803710940,671.9871215820312000,4.2325339317321780,53.7140312194824200,53,99,85,79,80,14971,2147754587,2147421696,2148013138,2147876461,2147637942,2147055680,2148259684,2147197924,208,4,13,11655
1364993307,5809,1004.8099975585938000,49.2799987792968750,671.1439208984375000,4.2604031562805180,53.7852210998535160,52,97,85,78,81,14968,2147754578,2147421741,2148013833,2147870683,2147639186,2147059666,2148262729,2147197915,3448,4,13,25902
1364996907,5808,996.9299926757812000,48.8399696350097660,671.0917968750000000,4.2621250152587890,53.8464012145996100,53,101,86,79,80,14967,2147758573,2147422308,2148011410,2147873737,2147638838,2147055396,2148260635,2147197833,3593,4,13,48285
1365000507,5807,994.4400024414062000,49.0558280944824200,671.9675903320312000,4.2331790924072270,53.8234100341796900,52,98,88,78,81,14967,2147756004,2147427748,2148007972,2147872676,2147640045,2147054098,2148261220,2147198345,3444,4,13,31605
1365004107,5809,990.9000244140625000,49.0663299560546900,672.2437133789062000,4.2240509986877440,53.8234710693359400,52,100,89,79,80,14967,2147754011,2147424356,2148012150,2147874797,2147640137,2147057929,2148257910,2147198153,226,4,13,36573
1365007707,5806,987.9799804687500000,50.6208992004394500,673.9243164062500000,4.1684761047363280,53.6341705322265600,52,98,87,79,81,14959,2147751917,2147425078,2148012242,2147873636,2147640905,2147047917,2148264941,2147197824,3330,4,13,46967
1365011307,5809,988.3200073242188000,50.6089706420898440,673.9987182617188000,4.1660161018371580,53.6331787109375000,52,98,83,78,80,14966,2147758162,2147425801,2148011666,2147873298,2147641060,2147051483,2148264228,2147195849,2611,4,13,45454
1365014907,5806,987.0800170898438000,50.4199790954589840,673.8914184570312000,4.1695652008056640,53.6589088439941400,53,98,84,77,80,14967,2147754980,2147426084,2148008740,2147875209,2147641572,2147055360,2148262811,2147196068,3350,4,13,51463
1365018507,5809,990.4899902343750000,50.0296783447265600,674.1085815429688000,4.1623802185058590,53.7161903381347660,53,97,83,78,81,14964,2147756745,2147423058,2148010944,2147872384,2147639908,2147060032,2148258633,2147198509,3552,4,13,55535
1365019856,5812,1000.3499755859375000,50.8099098205566400,673.8638916015625000,4.1704730987548830,53.6103210449218750,53,102,85,78,81,14968,2147758820,2147423670,2148011364,2147876516,2147641270,2147060516,2148260397,2147196708,3287,4,13,49217
